Regional Weather Roundup
Issued by NWS San Angelo, TX

Home | Current Version | Previous Version | Text Only | Print | Product List | Glossary On
Versions: 1 2 3 4 5 6 7 8 9 10 11 12 13 14 15 16 17 18 19 20 21 22 23 24 25 26 27 28 29 30 31 32 33 34 35 36 37 38 39 40 41 42 43 44 45 46 47 48 49 50
235
ASUS44 KSJT 210910
RWRSJT
WEST CENTRAL TEXAS REGIONAL WEATHER ROUNDUP
NATIONAL WEATHER SERVICE SAN ANGELO TX
300 AM CST WED FEB 21 2018

NOTE: "FAIR" INDICATES FEW OR NO CLOUDS BELOW 12,000 FEET WITH NO
SIGNIFICANT WEATHER AND/OR OBSTRUCTIONS TO VISIBILITY.

TXZ049-054-064>066-071>073-076>078-098-099-113-114-127-128-139-140-
154-155-168>170-211000
...LOCATIONS ACROSS WEST CENTRAL TEXAS...

CITY           SKY/WX    TMP DP  RH WIND       PRES   REMARKS
SAN ANGELO     CLOUDY    37  34  89 NE20G26   30.10F WCI  27
ABILENE        MIX PCPN  30 N/A N/A N20G26    30.18F WCI  17
DYESS AFB      CLOUDY    30  28  93 N18       30.19F WCI  18
JUNCTION       TSTM      42  32  67 N9        30.08R WCI  37
SWEETWATER     CLOUDY    30  27  89 NE15G23   30.20R WCI  19
BROWNWOOD      RAIN      34  32  93 NW18      30.20R WCI  23
COLEMAN        CLOUDY    33  32  97 NE24G31   30.12F WCI  20
SONORA         CLOUDY    39  37  93 NE20      30.08F WCI  30
OZONA          CLOUDY    41  37  87 NE20G25   30.07F WCI  32
BRADY          NOT AVBL
$$

TEXAS PANHANDLE/OKLAHOMA PANHANDLE

CITY           SKY/WX    TMP DP  RH WIND       PRES   REMARKS
AMARILLO       CLOUDY    19   2  47 N15       30.28R WCI   5
BORGER         CLOUDY    20   1  43 NE8       30.34R WCI  10
CANADIAN       CLOUDY    22   6  49 N10       30.36F WCI  11
DALHART        CLOUDY    16   0  49 NE12      30.28R WCI   3
DUMAS          CLOUDY    17  -2  43 N7        30.29S WCI   8
GUYMON         NOT AVBL
HEREFORD       MOSUNNY   21   4  48 NE9       30.28R WCI  11
PAMPA          CLOUDY    19   4  51 NE12      30.31F WCI   7
PERRYTON       CLOUDY    22   3  44 N14       30.33R WCI   9
$$

SOUTHERN PANHANDLE/SOUTH PLAINS/ROLLING PLAINS

CITY           SKY/WX    TMP DP  RH WIND       PRES   REMARKS
LUBBOCK        PTCLDY    24  10  55 NE15      30.21R WCI  11
SNYDER         CLOUDY    30  20  66 NE24G32   30.18R WCI  16
CHILDRESS      CLOUDY    27  12  53 N18       30.32S WCI  14
SEMINOLE       CLOUDY    31  17  55 NE22      30.18R WCI  18
$$

PERMIAN BASIN

CITY           SKY/WX    TMP DP  RH WIND       PRES   REMARKS
MIDLAND        CLOUDY    35  21  56 NE22G29   30.12R WCI  23
ODESSA         CLOUDY    32  23  69 NE21G33   30.13R WCI  20
WINK           CLOUDY    37  26  64 NE20G25   30.12R WCI  27
$$

FAR WEST/SOUTHWEST MOUNTAINS/TRANS PECOS

CITY           SKY/WX    TMP DP  RH WIND       PRES   REMARKS
ALPINE         SUNNY     42  31  66 E7        30.12R WCI  37
DRYDEN           N/A     54  46  74 N13G23    29.97R
EL PASO        PTCLDY    45  35  68 CALM      30.05S
FORT STOCKTON  CLOUDY    42  35  76 N16       30.09R WCI  34
GUADALUPE PASS MOCLDY    37  25  61 E36       30.06F WCI  23
MARFA          CLEAR     38  22  52 VRB3      30.05R
PECOS          CLOUDY    42  30  61 NE12      30.14R WCI  35
$$

DALLAS/FORT WORTH METROPLEX

CITY           SKY/WX    TMP DP  RH WIND       PRES   REMARKS
DFW AIRPORT    RAIN      38  35  89 N20       30.18R FOG     WCI  28
FTW MEACHAM    RAIN      36 N/A N/A N20G25    30.18S WCI  25
DAL-EXECUTIVE  HVY RAIN  37  36  96 N14       30.17F FOG     WCI  28
GRAND PRAIRIE  CLOUDY    37  37 100 N17G25    30.18F WCI  27
ADDISON        HVY RAIN  35  33  92 N8G18     30.22R WCI  28
MESQUITE       CLOUDY    37  36  96 N17       30.19F WCI  27
LANCASTER      MIX PCPN  37  36  94 N17G24    30.19F WCI  28
$$

NORTH CENTRAL TEXAS

CITY           SKY/WX    TMP DP  RH WIND       PRES   REMARKS
SHRMAN/DENISON CLOUDY    32  31  96 N16G22    30.25F WCI  22
GAINESVILLE    CLOUDY    31  29  93 NE18      30.25S WCI  19
BRIDGEPORT     CLOUDY    32  32 100 N16G24    30.25F WCI  21
DENTON         LGT RAIN  33  32  96 N20G29    30.20S WCI  21
WAXAHACHIE     LGT RAIN  37  37 100 N17G26    30.17R WCI  27
GRANBURY       CLOUDY    37  34  91 N10       30.22R WCI  29
$$

WESTERN NORTH TEXAS

CITY           SKY/WX    TMP DP  RH WIND       PRES   REMARKS
WICHITA FALLS  CLOUDY    27  21  78 N28G35    30.27S WCI  11
VERNON         CLOUDY    30  17  58 N20G26    30.31F WCI  18
BRECKENRIDGE   NOT AVBL
COMANCHE       RAIN      33  33 100 N15       30.19R WCI  23
$$

CENTRAL AND SOUTH CENTRAL TEXAS

CITY           SKY/WX    TMP DP  RH WIND       PRES   REMARKS
AUSTIN/BERGSTM CLOUDY    62  61  96 NE18      30.02R
WACO           LGT RAIN  40  37  89 N17       30.14R WCI  31
HILLSBORO      CLOUDY    39  38  99 N21G28    30.14F WCI  29
TEMPLE         LGT RAIN  40  39  97 N17G28    30.13R WCI  31
KILLEEN-GRAY   LGT RAIN  39  39 100 N18       30.11R WCI  30
FORT HOOD        N/A    N/A N/A N/A N20         N/A
GEORGETOWN     LGT RAIN  43  42  97 N13G23    30.11R WCI  36
LAGO VISTA     LGT RAIN  44  43  99 N22G28    30.06R WCI  35
SAN MARCOS     CLOUDY    67  64  90 SE10      29.97F
NEW BRAUNFELS  CLOUDY    67  64  90 SE8       29.96F
RANDOLPH AFB   CLOUDY    66  65  94 CALM      29.97F
SAN ANTONIO    CLOUDY    67  64  90 SE5       29.97R
STINSON        CLOUDY    71  67  87 SE12      29.94F
PLEASANTON     NOT AVBL
LA GRANGE      TSTM      66  65  97 E8        30.00F
GIDDINGS       RAIN      65  63  94 S9        30.04F
$$

EAST TEXAS

CITY           SKY/WX    TMP DP  RH WIND       PRES   REMARKS
PARIS          MIX PCPN  37  36  93 N13       30.17S FOG     WCI  29
CLARKSVILLE    NOT AVBL
TYLER          LGT RAIN  45  44  97 N10       30.10F WCI  40
LONGVIEW       LGT RAIN  54  54 100 NW10      30.09R
PALESTINE      DRIZZLE   48  48 100 NW8       30.11R
NACOGDOCHES    CLOUDY    71  68  90 S8        30.08S
$$

TEXAS HILL COUNTRY AND EDWARDS PLATEAU

CITY           SKY/WX    TMP DP  RH WIND       PRES   REMARKS
LLANO          RAIN      43  39  87 NW13G18   30.16R WCI  36
HORSESHOE BAY  CLOUDY    47  47 100 NW7       30.09R
KERRVILLE      CLOUDY    66  62  86 S3        30.02R
FREDERICKSBRG  CLOUDY    44  42  92 N20       30.07R WCI  36
ROCKSPRINGS    CLOUDY    55  54  94 NE8       30.05R
HONDO          CLOUDY    71  66  84 S9        29.97R
UVALDE         CLOUDY    69  66  89 SE5       29.96S
DEL RIO        CLOUDY    70  68  93 E12       29.91R
$$

SOUTHEAST TEXAS

CITY           SKY/WX    TMP DP  RH WIND       PRES   REMARKS
COLLEGE STN    TSTM      67  66  97 SW8       30.07R
CALDWELL       RAIN      67  63  87 E6G18     30.08R
CROCKETT       LGT RAIN  70  68  94 SE8       30.06F
BRENHAM        TSTM      68  65  93 SW14G24   30.08R
HUNTSVILLE     CLOUDY    72  68  87 S9G17     30.05S
CONROE         CLOUDY    70  70 100 SE8       30.06F
HOUSTON BUSH   LGT RAIN  72  71  97 S8        30.06F
HOUSTON HOBBY  CLOUDY    71  71 100 SE7       30.06F
PERLAND        LGT RAIN  71  71 100 SE6       30.07F
WHARTON        CLOUDY    70  68  93 SE7       30.05F FOG
$$

THE UPPER TEXAS COAST

CITY           SKY/WX    TMP DP  RH WIND       PRES   REMARKS
ORANGE         CLOUDY    72  72  99 S7        30.12F
PORT ARTHUR    CLOUDY    71  69  93 S8        30.10F
GALVESTON      LGT RAIN  71  69  93 E7        30.07F FOG
ANGLETON       CLOUDY    73  70  90 S6        30.05F
BAY CITY       HVY RAIN  72  72  99 SE8       30.05F
$$

TEXAS COASTAL BEND, RIO GRANDE PLAINS DEEP SOUTH TEXAS

CITY           SKY/WX    TMP DP  RH WIND       PRES   REMARKS
VICTORIA       CLOUDY    71  69  93 E9        29.99F
BEEVILLE       CLOUDY    70  69  98 SE6       29.99R
ROCKPORT       CLOUDY    70  69  97 SE15      29.97S FOG
PORT ARANSAS   NOT AVBL
PORT LAVACA    CLOUDY    69  68  94 SE18      29.98F FOG
CORPUS CHRISTI CLOUDY    71  71 100 SE16      29.96R
KINGSVILLE NAS CLOUDY    72  71  97 S12       29.96S
COTULLA        CLEAR     70  67  90 S14G24    29.92R
LAREDO         NOT AVBL
BROWNSVILLE    CLOUDY    73  71  93 SE7       29.97F
PORT ISABEL    MOCLDY    70  68  93 E10       29.96F FOG
HEBBRONVILLE   CLOUDY    68  67  95 S10G17    29.96F FOG
MCALLEN        CLOUDY    76  72  87 SE13      29.95F
WESLACO        CLOUDY    73  70  90 SE10G16   29.94F
FALFURRIAS     CLOUDY    73  70  91 SE7       29.96S
EDINBURG       CLOUDY    74  71  88 SE8       29.96F
$$




USA.gov is the U.S. government's official web portal to all federal, state and local government web resources and services.